User: anonymous   Login
Location: El Bakhil
(32.7726°N, 5.5387°W)
Time: 22:28:43
(UTC+00:00)
Language:

ZHUHAI-1 03B - Orbit

View from above orbital plane
View from above orbital plane
View from above satellite
View from above satellite

Ground track
Ground track

The orbit data is extracted from the following two-line orbital elements,

1 44536U 19060C   21267.24521926  .00001525  00000-0  75564-4 0  9991
2 44536  97.4470  15.4328 0009650 259.9846 129.9619 15.19240233111685
Epoch (UTC): 24 September 2021 05:53:06
Eccentricity: 0.0009650
inclination: 97.4470°
perigee height: 501 km
apogee height: 515 km
right ascension of ascending node: 15.4328°
argument of perigee: 259.9846°
revolutions per day: 15.19240233
mean anomaly at epoch: 129.9619°
orbit number at epoch: 11168

The dashed part of the orbit path shows where the satellite is in the earth's shadow,  

DLR